Вернуться в каталог

DMSP 5D-3 F19 DEB

АктивенSSO
NORAD 43416·DEBRIS·🇺🇸 United States

Запущен Apr 3, 2014 с Vandenberg Space Force Base

Loading…

Ближайшие Пролёты (ближайшие 24 часа)

TLE

СвежийSource: Space-Track

Эпоха: Sep 13, 2026, 23:08 UTC

1 43416U 14015F   26256.96408775  .00001354  00000-0  55083-3 0  9993
2 43416  98.6367 271.9693 0009011 180.9402 179.1765 14.29158632640143

Отслеживайте DMSP 5D-3 F19 DEB в реальном времени с AllMySat

Download on the App Store